User: anonymous   Login
Location: Caltech
(34.1382°N, 118.1253°W)
Time: 20:34:02
(UTC-07:00)
Language:

Cosmos 1758 Rocket - Orbit

View from above orbital plane
View from above orbital plane
View from above satellite
View from above satellite

Ground track
Ground track

The orbit data is extracted from the following two-line orbital elements,

1 16792U 86046B   15241.24001411  .00000214  00000-0  23394-4 0  9997
2 16792 082.4814 101.4337 0023027 301.2902 197.1720 14.82955836577360
Epoch (UTC): 29 August 2015 05:45:37
Eccentricity: 0.0023027
inclination: 82.4814°
perigee height: 604 km
apogee height: 636 km
right ascension of ascending node: 101.4337°
argument of perigee: 301.2902°
revolutions per day: 14.82955836
mean anomaly at epoch: 197.1720°
orbit number at epoch: 57736

The dashed part of the orbit path shows where the satellite is in the earth's shadow,  

DLR